Location: Fort Worth, Tx
(32.7431°N, 97.3695°W)
Time: 09:41:21
(UTC-04:00)

A-11 Canister half - Pass Details

Date: 21 August 2024
Orbit: 1524 x 1684 km, 47.3° (Epoch: 13 September)

Event Time Altitude Azimuth Distance (km) Brightness Sun altitude
Rises 06:14:26 0° 305° (NW) 4,938 11.4 -20.8°
Reaches altitude 10° 06:17:41 10° 301° (WNW) 3,941 10.9 -20.2°
Maximum altitude 06:27:30 58° 226° (SW) 1,877 9.1 -18.4°
Drops below altitude 10° 06:37:03 10° 150° (SSE) 3,833 11.1 -16.6°
Sets 06:40:10 0° 146° (SSE) 4,795 11.7 -16.0°
